| time (UTC) | temp F | wind direction | speed knots | gust knots | rain 1hr in | rain 24hr in | rain mn in | humidity % | barometer mb |
| 20260510081526 | 74 | 167 | 2.6 | 7.8 | 0.00 | 0.00 | 0.00 | 83 | 1012.3 |
| 20260510080027 | 74 | 188 | 1.7 | 4.3 | 0.00 | 0.00 | 0.00 | 83 | 1011.7 |
| 20260510074535 | 74 | 184 | 1.7 | 4.3 | 0.00 | 0.00 | 0.00 | 82 | 1011.0 |
| 20260510073030 | 75 | 223 | 2.6 | 7.8 | 0.00 | 0.00 | 0.00 | 82 | 1010.4 |
| 20260510071529 | 75 | 261 | 1.7 | 8.7 | 0.00 | 0.00 | 0.00 | 81 | 1010.2 |
| 20260510070034 | 76 | 176 | 2.6 | 10.4 | 0.00 | 0.00 | 0.00 | 80 | 1011.6 |
| 20260510064530 | 76 | 155 | 3.5 | 7.8 | 0.00 | 0.00 | 0.00 | 79 | 1011.9 |
| 20260510063034 | 76 | 126 | 1.7 | 6.1 | 0.00 | 0.00 | 0.00 | 78 | 1012.0 |
| 20260510061531 | 76 | 117 | 0.9 | 4.3 | 0.00 | 0.00 | 0.00 | 78 | 1012.0 |
| 20260510060032 | 76 | 271 | 3.5 | 9.6 | 0.00 | 0.00 | 0.00 | 78 | 1010.4 |
| 20260510054600 | 76 | 263 | 4.3 | 9.6 | 0.00 | 0.00 | 0.00 | 78 | 1009.9 |
| 20260510053030 | 76 | 263 | 5.2 | 10.4 | 0.00 | 0.00 | 0.00 | 78 | 1009.5 |
| 20260510051531 | 76 | 290 | 4.3 | 11.3 | 0.00 | 0.00 | 0.00 | 78 | 1009.5 |
| 20260510050027 | 76 | 273 | 6.1 | 13.0 | 0.00 | 0.00 | 0.00 | 78 | 1009.4 |
| 20260510044528 | 76 | 277 | 4.3 | 11.3 | 0.00 | 0.00 | 0.00 | 77 | 1009.1 |
| 20260510043030 | 76 | 290 | 3.5 | 9.6 | 0.00 | 0.00 | 0.00 | 75 | 1009.0 |
| 20260510041537 | 76 | 271 | 3.5 | 7.8 | 0.00 | 0.00 | 0.00 | 72 | 1009.3 |
| 20260510040028 | 76 | 264 | 1.7 | 4.3 | 0.00 | 0.00 | 0.00 | 71 | 1009.5 |
| 20260510034529 | 76 | 295 | 0.0 | 3.5 | 0.00 | 0.00 | 0.00 | 70 | 1009.2 |
| 20260510033027 | 76 | 261 | 0.9 | 3.5 | 0.00 | 0.00 | 0.00 | 70 | 1009.3 |
| 20260510031533 | 77 | 263 | 1.7 | 3.5 | 0.00 | 0.00 | 0.00 | 69 | 1009.4 |
| 20260510030027 | 77 | 265 | 1.7 | 3.5 | 0.00 | 0.00 | 0.00 | 68 | 1009.3 |
| 20260510024530 | 78 | 230 | 1.7 | 4.3 | 0.00 | 0.00 | 0.00 | 66 | 1009.2 |
| 20260510023030 | 78 | 239 | 1.7 | 3.5 | 0.00 | 0.00 | 0.00 | 65 | 1009.2 |
| 20260510021535 | 79 | 239 | 1.7 | 4.3 | 0.00 | 0.00 | 0.00 | 63 | 1009.0 |
| 20260510020031 | 80 | 236 | 0.9 | 3.5 | 0.00 | 0.00 | 0.00 | 61 | 1008.9 |
| 20260510014532 | 81 | 230 | 0.9 | 4.3 | 0.00 | 0.00 | 0.00 | 59 | 1008.8 |
| 20260510013029 | 82 | 243 | 1.7 | 5.2 | 0.00 | 0.00 | 0.00 | 58 | 1008.6 |
| 20260510011528 | 83 | 235 | 1.7 | 4.3 | 0.00 | 0.00 | 0.00 | 56 | 1008.3 |
| 20260510010030 | 84 | 226 | 0.9 | 4.3 | 0.00 | 0.00 | 0.00 | 56 | 1008.1 |
| 20260510004529 | 84 | 219 | 1.7 | 6.1 | 0.00 | 0.00 | 0.00 | 54 | 1008.0 |
| 20260510003026 | 84 | 196 | 2.6 | 6.1 | 0.00 | 0.00 | 0.00 | 52 | 1008.0 |
| 20260510001538 | 85 | 229 | 3.5 | 7.0 | 0.00 | 0.00 | 0.00 | 50 | 1008.2 |
| 20260510000030 | 86 | 213 | 2.6 | 6.1 | 0.00 | 0.00 | 0.00 | 47 | 1008.1 |
| 20260509234530 | 86 | 194 | 2.6 | 7.8 | 0.00 | 0.00 | 0.00 | 47 | 1008.0 |
| 20260509233030 | 87 | 165 | 3.5 | 7.0 | 0.00 | 0.00 | 0.00 | 46 | 1008.0 |
| 20260509231528 | 88 | 189 | 2.6 | 7.0 | 0.00 | 0.00 | 0.00 | 45 | 1008.2 |
| 20260509230030 | 87 | 193 | 2.6 | 9.6 | 0.00 | 0.00 | 0.00 | 42 | 1008.1 |
| 20260509224529 | 88 | 199 | 3.5 | 7.8 | 0.00 | 0.00 | 0.00 | 45 | 1008.0 |
| 20260509223028 | 88 | 182 | 1.7 | 8.7 | 0.00 | 0.00 | 0.00 | 46 | 1007.9 |
| 20260509221530 | 88 | 205 | 3.5 | 8.7 | 0.00 | 0.00 | 0.00 | 46 | 1007.9 |
| 20260509220029 | 87 | 125 | 2.6 | 8.7 | 0.00 | 0.00 | 0.00 | 48 | 1008.0 |
| 20260509214536 | 87 | 204 | 4.3 | 10.4 | 0.00 | 0.00 | 0.00 | 49 | 1008.1 |
| 20260509213028 | 88 | 189 | 3.5 | 9.6 | 0.00 | 0.00 | 0.00 | 51 | 1008.3 |
| 20260509211531 | 87 | 198 | 4.3 | 8.7 | 0.00 | 0.00 | 0.00 | 51 | 1008.5 |
| 20260509210033 | 88 | 192 | 4.3 | 8.7 | 0.00 | 0.00 | 0.00 | 53 | 1008.8 |
| 20260509204537 | 87 | 190 | 5.2 | 9.6 | 0.00 | 0.00 | 0.00 | 52 | 1009.1 |
| 20260509203027 | 88 | 233 | 1.7 | 7.8 | 0.00 | 0.00 | 0.00 | 55 | 1009.3 |
| 20260509201528 | 87 | 250 | 3.5 | 8.7 | 0.00 | 0.00 | 0.00 | 53 | 1009.4 |
| 20260509200038 | 87 | 204 | 5.2 | 10.4 | 0.00 | 0.00 | 0.00 | 55 | 1009.5 |
| 20260509194537 | 86 | 163 | 1.7 | 9.6 | 0.00 | 0.00 | 0.00 | 56 | 1009.5 |
| 20260509193036 | 88 | 184 | 1.7 | 10.4 | 0.00 | 0.00 | 0.00 | 57 | 1009.7 |
| 20260509191530 | 86 | 161 | 2.6 | 9.6 | 0.00 | 0.00 | 0.00 | 60 | 1009.9 |
| 20260509190029 | 85 | 136 | 5.2 | 10.4 | 0.00 | 0.00 | 0.00 | 60 | 1010.0 |
| 20260509184533 | 85 | 215 | 3.5 | 9.6 | 0.00 | 0.00 | 0.00 | 61 | 1010.0 |
| 20260509183032 | 85 | 168 | 4.3 | 9.6 | 0.00 | 0.00 | 0.00 | 62 | 1010.1 |
| 20260509181527 | 84 | 237 | 2.6 | 10.4 | 0.00 | 0.00 | 0.00 | 62 | 1010.1 |
| 20260509180027 | 84 | 248 | 3.5 | 8.7 | 0.00 | 0.00 | 0.00 | 62 | 1010.3 |
| 20260509174527 | 84 | 194 | 2.6 | 7.0 | 0.00 | 0.00 | 0.00 | 63 | 1010.5 |
| 20260509173028 | 83 | 221 | 3.5 | 9.6 | 0.00 | 0.00 | 0.00 | 63 | 1010.7 |
| 20260509171528 | 83 | 79 | 3.5 | 10.4 | 0.00 | 0.00 | 0.00 | 64 | 1010.9 |
| 20260509170030 | 83 | 177 | 4.3 | 10.4 | 0.00 | 0.00 | 0.00 | 64 | 1010.8 |
| 20260509164530 | 81 | 148 | 1.7 | 7.0 | 0.00 | 0.00 | 0.00 | 65 | 1010.9 |
| 20260509163031 | 82 | 158 | 1.7 | 6.1 | 0.00 | 0.00 | 0.00 | 66 | 1010.9 |
| 20260509161530 | 80 | 162 | 2.6 | 7.8 | 0.00 | 0.00 | 0.00 | 68 | 1010.8 |
| 20260509160028 | 80 | 94 | 3.5 | 7.8 | 0.00 | 0.00 | 0.00 | 68 | 1010.8 |
| 20260509154533 | 79 | 78 | 0.9 | 8.7 | 0.00 | 0.00 | 0.00 | 70 | 1010.7 |
| 20260509153032 | 77 | 83 | 4.3 | 11.3 | 0.00 | 0.00 | 0.00 | 72 | 1010.7 |
| 20260509151533 | 77 | 72 | 1.7 | 8.7 | 0.00 | 0.00 | 0.00 | 74 | 1010.6 |
| 20260509150026 | 76 | 86 | 2.6 | 7.8 | 0.00 | 0.00 | 0.00 | 76 | 1010.8 |
| 20260509144529 | 75 | 104 | 1.7 | 7.0 | 0.00 | 0.00 | 0.00 | 76 | 1010.9 |
| 20260509143038 | 74 | 94 | 2.6 | 6.1 | 0.00 | 0.00 | 0.00 | 78 | 1010.8 |
| 20260509141529 | 73 | 122 | 1.7 | 7.0 | 0.00 | 0.00 | 0.00 | 81 | 1010.6 |
| 20260509140052 | 72 | 74 | 0.9 | 7.0 | 0.00 | 0.00 | 0.00 | 84 | 1010.5 |
| 20260509134527 | 71 | 109 | 0.0 | 2.6 | 0.00 | 0.00 | 0.00 | 86 | 1010.5 |
| 20260509133029 | 71 | 82 | 0.9 | 3.5 | 0.00 | 0.00 | 0.00 | 87 | 1010.2 |
| 20260509131535 | 70 | 0 | 0.0 | 2.6 | 0.00 | 0.00 | 0.00 | 87 | 1010.2 |
| 20260509130029 | 70 | 0 | 0.0 | 2.6 | 0.00 | 0.00 | 0.00 | 87 | 1010.0 |
| 20260509124535 | 70 | 0 | 0.0 | 2.6 | 0.00 | 0.00 | 0.00 | 87 | 1010.1 |
| 20260509123028 | 70 | 0 | 0.0 | 0.0 | 0.00 | 0.00 | 0.00 | 87 | 1010.1 |
| 20260509121544 | 69 | 0 | 0.0 | 0.0 | 0.00 | 0.00 | 0.00 | 86 | 1010.0 |
| 20260509120035 | 70 | 0 | 0.0 | 1.7 | 0.00 | 0.00 | 0.00 | 86 | 1010.1 |
| 20260509114529 | 70 | 236 | 0.9 | 2.6 | 0.00 | 0.00 | 0.00 | 86 | 1009.8 |
| 20260509113027 | 70 | 257 | 0.9 | 2.6 | 0.00 | 0.00 | 0.00 | 86 | 1009.4 |
| 20260509104532 | 70 | 283 | 1.7 | 5.2 | 0.00 | 0.00 | 0.00 | 86 | 1008.8 |
| 20260509103035 | 70 | 238 | 0.0 | 2.6 | 0.00 | 0.00 | 0.00 | 86 | 1009.0 |
| 20260509101532 | 70 | 0 | 0.0 | 0.0 | 0.00 | 0.00 | 0.00 | 86 | 1008.9 |
| 20260509093031 | 70 | 0 | 0.0 | 6.1 | 0.00 | 0.00 | 0.00 | 85 | 1008.2 |
| 20260509091532 | 70 | 288 | 4.3 | 9.6 | 0.00 | 0.00 | 0.00 | 85 | 1007.3 |
| 20260509084536 | 70 | 274 | 4.3 | 9.6 | 0.00 | 0.00 | 0.00 | 84 | 1007.6 |
| 20260509083038 | 70 | 271 | 4.3 | 8.7 | 0.00 | 0.00 | 0.00 | 84 | 1008.2 |